Location: Winthrop
(48.4780°N, 120.1850°W)
Time: 01:31:49
(UTC-08:00)

Courier 1B Rocket - Visible Passes

Search period start: 28 January 2023 00:00
Search period end: 07 February 2023 00:00
Orbit: 920 x 1202 km, 28.3° (Epoch: 27 January)

Date Brightness Start Highest point End Pass type
(mag) Time Alt. Az. Time Alt. Az. Time Alt. Az.
29 Jan 7.1 19:47:15 10° SSW 19:48:53 11° S 19:48:53 11° S visible
30 Jan 7.2 18:48:21 10° S 18:48:35 10° S 18:48:49 10° SSE visible
31 Jan 7.1 19:38:03 10° SSW 19:39:56 11° S 19:40:47 11° S visible
01 Feb 7.2 18:37:51 10° S 18:39:18 11° S 18:40:46 10° SSE visible
02 Feb 7.2 19:29:33 10° SSW 19:30:40 10° S 19:31:46 10° S visible
03 Feb 7.2 18:28:35 10° SSW 18:30:03 11° S 18:31:31 10° SSE visible
05 Feb 7.4 18:20:22 10° S 18:20:47 10° S 18:21:13 10° S visible
